Weather History for Independence, KS

Change the Weather History Date:

Sunday, December 9, 2012

  Actual Average (KCFV) Record (KCFV)
Temperature  
Mean Temperature 37 °F -  
Max Temperature 46 °F 47 °F 64 °F (1996)
Min Temperature 28 °F 28 °F -5 °F (2005)
Degree Days  
Heating Degree Days 28    
Moisture  
Dew Point 32 °F    
Average Humidity 74    
Maximum Humidity 100    
Minimum Humidity 47    
Precipitation  
Precipitation 0.00 in - - ()
Sea Level Pressure  
Sea Level Pressure 29.94 in    
Wind  
Wind Speed 11 mph (North)    
Max Wind Speed 23 mph    
Max Gust Speed 29 mph    
Visibility 7 miles    
Events      
Averages and records for this station are not official NWS values.
T = Trace of Precipitation, MM = Missing Value Source: NWS Daily Summary

Daily Weather History Graph

Daily Weather History Graph

Search for Another Location

Airport:

Trip Planner

Search our weather history database for the weather conditions in past years. The results will help you decide how hot, cold, wet, or windy it might be!

Date:

Astronomy

Dec. 09, 2012 Rise Set
Actual Time 7:25 AM CST 5:05 PM CST
Civil Twilight 6:56 AM CST 5:34 PM CST
Nautical Twilight 6:24 AM CST 6:07 PM CST
Astronomical Twilight 5:52 AM CST 6:38 PM CST
Moon 3:03 AM CST (12/9) 2:09 PM CST (12/9)
Length of Visible Light 10h 38m
Length of Day
9h 40m
Waning Crescent, 18% of the Moon is Illuminated
Dec 9
Waning Crescent
Dec 13
New
Dec 19
First Quarter
Dec 28
Full
Jan 4
Last Quarter

Hourly Weather History & Observations

Time (CST) Temp. Windchill Dew Point Humidity Pressure Visibility Wind Dir Wind Speed Gust Speed Precip Events Conditions
12:15 AM 44.6 °F 42.2 °F 44.6 °F 100% 29.84 in 4.0 mi North 4.6 mph - N/A   Overcast
12:35 AM 44.6 °F 41.4 °F 44.6 °F 100% 29.83 in 3.0 mi North 5.8 mph - N/A   Overcast
12:55 AM 44.6 °F 42.2 °F 44.6 °F 100% 29.83 in 3.0 mi NNE 4.6 mph - N/A   Overcast
1:15 AM 44.6 °F 42.2 °F 44.6 °F 100% 29.82 in 3.0 mi NNE 4.6 mph - N/A   Overcast
1:35 AM 44.6 °F 42.2 °F 44.6 °F 100% 29.81 in 3.0 mi NNE 4.6 mph - N/A   Overcast
1:55 AM 44.6 °F 43.1 °F 44.6 °F 100% 29.82 in 3.0 mi NNE 3.5 mph - N/A   Overcast
2:15 AM 44.6 °F 40.7 °F 44.6 °F 100% 29.82 in 2.5 mi North 6.9 mph - N/A   Overcast
2:35 AM 44.6 °F 39.7 °F 44.6 °F 100% 29.81 in 3.0 mi North 9.2 mph - N/A   Overcast
2:55 AM 44.6 °F 41.4 °F 44.6 °F 100% 29.81 in 3.0 mi NNE 5.8 mph - N/A   Overcast
3:15 AM 44.6 °F 41.4 °F 44.6 °F 100% 29.80 in 3.0 mi NNE 5.8 mph - N/A   Overcast
3:35 AM 44.6 °F 41.4 °F 44.6 °F 100% 29.80 in 3.0 mi North 5.8 mph - N/A   Overcast
3:55 AM 44.6 °F 39.7 °F 44.6 °F 100% 29.80 in 3.0 mi North 9.2 mph - N/A   Overcast
4:15 AM 44.6 °F 40.2 °F 42.8 °F 93% 29.80 in 3.0 mi North 8.1 mph - N/A   Overcast
4:35 AM 44.6 °F 40.7 °F 42.8 °F 93% 29.81 in 3.0 mi North 6.9 mph - N/A   Overcast
4:55 AM 44.6 °F 40.7 °F 42.8 °F 93% 29.81 in 4.0 mi North 6.9 mph - N/A   Overcast
5:15 AM 44.6 °F 40.7 °F 42.8 °F 93% 29.81 in 4.0 mi North 6.9 mph - N/A   Overcast
5:35 AM 44.6 °F 39.7 °F 42.8 °F 93% 29.80 in 4.0 mi North 9.2 mph - N/A   Overcast
6:15 AM 44.6 °F 40.7 °F 42.8 °F 93% 29.82 in 4.0 mi North 6.9 mph - N/A   Overcast
6:35 AM 44.6 °F 39.2 °F 42.8 °F 93% 29.83 in 4.0 mi North 10.4 mph - N/A   Overcast
6:55 AM 44.6 °F 39.2 °F 42.8 °F 93% 29.85 in 4.0 mi NNW 10.4 mph - N/A   Overcast
7:15 AM 44.6 °F 39.7 °F 42.8 °F 93% 29.87 in 4.0 mi NNW 9.2 mph - N/A   Overcast
7:35 AM 44.6 °F 40.2 °F 42.8 °F 93% 29.87 in 4.0 mi North 8.1 mph - N/A   Overcast
7:55 AM 44.6 °F 40.7 °F 42.8 °F 93% 29.87 in 4.0 mi North 6.9 mph - N/A   Overcast
8:15 AM 44.6 °F 38.8 °F 42.8 °F 93% 29.88 in 3.0 mi North 11.5 mph - N/A   Overcast
8:35 AM 44.6 °F 38.1 °F 41.0 °F 87% 29.88 in 4.0 mi North 13.8 mph - N/A   Overcast
8:55 AM 44.6 °F 38.1 °F 41.0 °F 87% 29.89 in 4.0 mi North 13.8 mph - N/A   Overcast
9:15 AM 44.6 °F 37.8 °F 41.0 °F 87% 29.90 in 5.0 mi North 15.0 mph - N/A   Overcast
9:35 AM 44.6 °F 38.1 °F 41.0 °F 87% 29.90 in 5.0 mi North 13.8 mph - N/A   Overcast
9:55 AM 44.6 °F 36.9 °F 41.0 °F 87% 29.90 in 7.0 mi North 18.4 mph 23.0 mph N/A   Overcast
10:15 AM 44.6 °F 37.8 °F 41.0 °F 87% 29.91 in 7.0 mi North 15.0 mph 23.0 mph N/A   Overcast
10:35 AM 46.4 °F 39.8 °F 41.0 °F 81% 29.92 in 7.0 mi North 16.1 mph 19.6 mph N/A   Overcast
10:55 AM 46.4 °F 40.4 °F 39.2 °F 76% 29.92 in 7.0 mi North 13.8 mph 19.6 mph N/A   Overcast
11:15 AM 46.4 °F 40.7 °F 41.0 °F 81% 29.92 in 7.0 mi North 12.7 mph - N/A   Overcast
11:35 AM 46.4 °F 40.7 °F 39.2 °F 76% 29.92 in 10.0 mi North 12.7 mph - N/A   Mostly Cloudy
11:55 AM 46.4 °F 39.5 °F 39.2 °F 76% 29.92 in 7.0 mi North 17.3 mph - N/A   Mostly Cloudy
12:15 PM 46.4 °F 40.1 °F 39.2 °F 76% 29.92 in 10.0 mi North 15.0 mph - N/A   Mostly Cloudy
12:35 PM 46.4 °F 39.5 °F 37.4 °F 71% 29.92 in 10.0 mi NNW 17.3 mph - N/A   Overcast
12:55 PM 44.6 °F 36.9 °F 37.4 °F 76% 29.93 in 10.0 mi NNW 18.4 mph 21.9 mph N/A   Overcast
1:15 PM 44.6 °F 37.2 °F 33.8 °F 66% 29.93 in 10.0 mi NNW 17.3 mph 23.0 mph N/A   Overcast
1:35 PM 44.6 °F 37.4 °F 33.8 °F 66% 29.93 in 10.0 mi NNW 16.1 mph 21.9 mph N/A   Overcast
1:55 PM 46.4 °F 40.1 °F 33.8 °F 62% 29.93 in 10.0 mi NNW 15.0 mph - N/A   Overcast
2:15 PM 46.4 °F 39.0 °F 32.0 °F 57% 29.93 in 10.0 mi NNW 19.6 mph - N/A   Overcast
2:35 PM 44.6 °F 35.9 °F 30.2 °F 57% 29.94 in 10.0 mi NNW 23.0 mph 27.6 mph N/A   Overcast
2:55 PM 42.8 °F 34.0 °F 28.4 °F 57% 29.95 in 10.0 mi NNW 20.7 mph 26.5 mph N/A   Mostly Cloudy
3:15 PM 42.8 °F 34.0 °F 26.6 °F 53% 29.96 in 10.0 mi NNW 20.7 mph 26.5 mph N/A   Mostly Cloudy
3:35 PM 41.0 °F 31.6 °F 23.0 °F 49% 29.98 in 10.0 mi NNW 20.7 mph - N/A   Scattered Clouds
3:55 PM 41.0 °F 32.2 °F 23.0 °F 49% 29.99 in 10.0 mi NNW 18.4 mph 24.2 mph N/A   Clear
4:15 PM 41.0 °F 31.9 °F 23.0 °F 49% 30.00 in 10.0 mi NNW 19.6 mph 24.2 mph N/A   Clear
4:35 PM 37.4 °F 27.5 °F 21.2 °F 52% 30.01 in 10.0 mi NNW 18.4 mph 26.5 mph N/A   Clear
4:55 PM 35.6 °F 25.2 °F 21.2 °F 56% 30.02 in 10.0 mi NNW 18.4 mph - N/A   Clear
5:15 PM 35.6 °F 26.6 °F 19.4 °F 52% 30.03 in 10.0 mi NNW 13.8 mph - N/A   Clear
5:35 PM 33.8 °F 22.2 °F 17.6 °F 52% 30.03 in 10.0 mi NNW 20.7 mph - N/A   Clear
5:55 PM 33.8 °F 23.9 °F 19.4 °F 56% 30.04 in 10.0 mi NNW 15.0 mph 20.7 mph N/A   Clear
6:15 PM 32.0 °F 20.8 °F 17.6 °F 55% 30.05 in 10.0 mi NNW 17.3 mph 25.3 mph N/A   Clear
6:35 PM 32.0 °F 22.5 °F 17.6 °F 55% 30.07 in 10.0 mi NNW 12.7 mph - N/A   Clear
6:55 PM 32.0 °F 21.2 °F 17.6 °F 55% 30.07 in 10.0 mi NNW 16.1 mph 20.7 mph N/A   Clear
7:15 PM 30.2 °F 18.5 °F 15.8 °F 55% 30.07 in 10.0 mi NNW 17.3 mph 25.3 mph N/A   Clear
7:35 PM 30.2 °F 17.4 °F 14.0 °F 51% 30.08 in 10.0 mi NNW 20.7 mph 24.2 mph N/A   Clear
7:55 PM 30.2 °F 18.5 °F 14.0 °F 51% 30.08 in 10.0 mi NNW 17.3 mph 23.0 mph N/A   Clear
8:15 PM 30.2 °F 18.9 °F 14.0 °F 51% 30.08 in 10.0 mi NNW 16.1 mph 25.3 mph N/A   Clear
8:35 PM 30.2 °F 18.5 °F 14.0 °F 51% 30.07 in 10.0 mi NNW 17.3 mph 25.3 mph N/A   Clear
8:55 PM 30.2 °F 17.1 °F 14.0 °F 51% 30.08 in 10.0 mi North 21.9 mph 26.5 mph N/A   Clear
9:15 PM 30.2 °F 18.1 °F 12.2 °F 47% 30.10 in 10.0 mi NNW 18.4 mph 27.6 mph N/A   Clear
9:35 PM 28.4 °F 16.6 °F 12.2 °F 51% 30.11 in 10.0 mi NNW 16.1 mph 24.2 mph N/A   Clear
9:55 PM 28.4 °F 15.8 °F 12.2 °F 51% 30.12 in 10.0 mi NNW 18.4 mph 27.6 mph N/A   Clear
10:15 PM 28.4 °F 15.4 °F 14.0 °F 55% 30.12 in 10.0 mi NNW 19.6 mph 26.5 mph N/A   Clear
10:35 PM 28.4 °F 14.4 °F 12.2 °F 51% 30.12 in 10.0 mi NNW 23.0 mph 28.8 mph N/A   Clear
10:55 PM 28.4 °F 14.4 °F 12.2 °F 51% 30.12 in 10.0 mi NNW 23.0 mph 27.6 mph N/A   Scattered Clouds
11:15 PM 28.4 °F 15.8 °F 14.0 °F 55% 30.12 in 10.0 mi North 18.4 mph 24.2 mph N/A   Clear
11:35 PM 28.4 °F 15.1 °F 12.2 °F 51% 30.12 in 10.0 mi NNW 20.7 mph 28.8 mph N/A   Clear
11:55 PM 28.4 °F 14.4 °F 12.2 °F 51% 30.12 in 10.0 mi NNW 23.0 mph 27.6 mph N/A   Mostly Cloudy